Fargo, ND

9:27 PM CDT on October 18, 2019 (GMT -0500)
Hector International

Weather History for KFAR - August, 2019

Change the Weather History Date:

Thursday, August 15, 2019

  Actual Average Record
Temperature  
Mean Temperature 64 °F 70 °F  
Max Temperature 73 °F 82 °F 102 °F (1935)
Min Temperature 55 °F 58 °F 43 °F (1979)
Degree Days  
Heating Degree Days 1 1  
Month to date heating degree days 9 11  
Since 1 June heating degree days 73 100  
Since 1 July heating degree days 15 27  
Cooling Degree Days 0 6  
Month to date cooling degree days 68 96  
Year to date cooling degree days 446 436  
Since 1 June cooling degree days 436 405  
Growing Degree Days 14 (Base 50)    
Moisture  
Dew Point 58 °F    
Average Humidity 81    
Maximum Humidity 93    
Minimum Humidity 68    
Precipitation  
Precipitation 0.01 in 0.08 in 1.57 in (1881)
Month to date precipitation 2.15 1.09  
Year to date precipitation 18.49 14.56  
Snow  
Snow 0.00 in 0.00 in 0.00 in ()
Month to date snowfall 0.0 0.0  
Since 1 June snowfall 0.0 0.0  
Since 1 July snowfall 0.0 0.0  
Snow Depth 0.00 in    
Sea Level Pressure  
Sea Level Pressure 29.91 in    
Wind  
Wind Speed 8 mph (SSW)    
Max Wind Speed 14 mph    
Max Gust Speed 18 mph    
Visibility 10 miles    
Events Rain    
T = Trace of Precipitation, MM = Missing Value Source: NWS Daily Summary

Daily Weather History Graph

Daily Weather History Graph

Search for Another Location

Airport or City:

Astronomy

Aug. 15, 2019 Rise Set
Actual Time 6:24 AM CDT 8:38 PM CDT
Civil Twilight 5:51 AM CDT 9:11 PM CDT
Nautical Twilight 5:09 AM CDT 9:52 PM CDT
Astronomical Twilight 4:22 AM CDT 10:39 PM CDT
Moon 9:08 PM CDT (8/15) 6:16 AM CDT (8/15)
Length of Visible Light 15h 20m
Length of Day
14h 13m
Full, 100% of the Moon is Illuminated
Aug 15
Full
Aug 23
Last Quarter
Aug 30
New
Sep 5
First Quarter
Sep 13
Full

Hourly Weather History & Observations

Time (CDT) Temp. Dew Point Humidity Pressure Visibility Wind Dir Wind Speed Gust Speed Precip Events Conditions
12:53 AM 60.1 °F 55.0 °F 83% 30.03 in 10.0 mi South 4.6 mph - N/A   Clear
1:53 AM 59.0 °F 55.0 °F 87% 30.01 in 10.0 mi South 5.8 mph - N/A   Clear
2:53 AM 57.9 °F 54.0 °F 87% 30.00 in 10.0 mi South 5.8 mph - N/A   Clear
3:53 AM 57.0 °F 54.0 °F 89% 29.99 in 10.0 mi South 5.8 mph - N/A   Clear
4:53 AM 57.0 °F 54.0 °F 89% 29.98 in 10.0 mi South 5.8 mph - N/A   Clear
5:53 AM 55.9 °F 53.1 °F 90% 29.98 in 10.0 mi South 5.8 mph - N/A   Clear
6:53 AM 57.9 °F 55.0 °F 90% 29.97 in 10.0 mi South 8.1 mph - N/A   Clear
7:53 AM 61.0 °F 55.9 °F 83% 29.96 in 10.0 mi SSE 5.8 mph - N/A   Clear
8:53 AM 64.9 °F 57.9 °F 78% 29.95 in 10.0 mi South 10.4 mph - N/A   Clear
9:53 AM 68.0 °F 59.0 °F 73% 29.95 in 10.0 mi SSW 10.4 mph - N/A   Clear
10:53 AM 71.1 °F 60.1 °F 68% 29.94 in 10.0 mi SW 11.5 mph - N/A   Clear
11:53 AM 72.0 °F 61.0 °F 68% 29.92 in 10.0 mi Variable 4.6 mph - N/A   Mostly Cloudy
12:53 PM 71.1 °F 60.1 °F 68% 29.91 in 10.0 mi SSW 9.2 mph - N/A   Overcast
1:53 PM 72.0 °F 60.1 °F 66% 29.88 in 10.0 mi SSW 12.7 mph - 0.00 in   Mostly Cloudy
2:53 PM 70.0 °F 63.0 °F 78% 29.88 in 10.0 mi South 9.2 mph - 0.00 in Rain Light Rain
3:53 PM 71.1 °F 63.0 °F 75% 29.84 in 10.0 mi South 10.4 mph - 0.01 in   Scattered Clouds
4:53 PM 70.0 °F 63.0 °F 78% 29.83 in 10.0 mi South 8.1 mph - N/A   Scattered Clouds
5:53 PM 69.1 °F 60.1 °F 73% 29.83 in 10.0 mi South 9.2 mph - N/A   Clear
6:53 PM 68.0 °F 61.0 °F 78% 29.81 in 10.0 mi SSW 8.1 mph - N/A   Clear
7:53 PM 66.0 °F 59.0 °F 78% 29.82 in 10.0 mi WSW 12.7 mph - N/A   Mostly Cloudy
8:53 PM 64.0 °F 59.0 °F 84% 29.81 in 10.0 mi SSW 6.9 mph - N/A   Clear
9:53 PM 61.0 °F 57.9 °F 90% 29.82 in 10.0 mi SW 8.1 mph - N/A   Scattered Clouds
10:53 PM 61.0 °F 57.9 °F 90% 29.82 in 10.0 mi SW 6.9 mph - N/A   Scattered Clouds
11:53 PM 60.1 °F 57.9 °F 93% 29.81 in 10.0 mi WSW 6.9 mph - N/A   Clear